Newberry, MI

12:47 PM EDT on June 29, 2017 (GMT -0400)
Luce County

Weather History for KERY - January, 2013

Change the Weather History Date:

Saturday, January 19, 2013

  Actual Average Record
Temperature  
Mean Temperature 26 °F -  
Max Temperature 32 °F 24 °F 45 °F (1981)
Min Temperature 19 °F 8 °F -19 °F (1984)
Degree Days  
Heating Degree Days 40    
Moisture  
Dew Point 22 °F    
Average Humidity 92    
Maximum Humidity 100    
Minimum Humidity 74    
Precipitation  
Precipitation 0.00 in - - ()
Sea Level Pressure  
Sea Level Pressure 29.60 in    
Wind  
Wind Speed 4 mph (SSW)    
Max Wind Speed 24 mph    
Max Gust Speed 36 mph    
Visibility 6 miles    
Events Snow    
Averages and records for this station are not official NWS values.
T = Trace of Precipitation, MM = Missing Value Source: NWS Daily Summary

Daily Weather History Graph

Daily Weather History Graph

Search for Another Location

Airport or City:

Trip Planner

Search our weather history database for the weather conditions in past years. The results will help you decide how hot, cold, wet, or windy it might be!

Date:

Astronomy

Jan. 19, 2013 Rise Set
Actual Time 8:17 AM EST 5:27 PM EST
Civil Twilight 7:44 AM EST 6:01 PM EST
Nautical Twilight 7:07 AM EST 6:38 PM EST
Astronomical Twilight 6:31 AM EST 7:14 PM EST
Moon 11:57 AM EST (1/19) 1:46 AM EST (1/19)
Length of Visible Light 10h 16m
Length of Day
9h 10m
First Quarter, 57% of the Moon is Illuminated
Jan 19
First Quarter
Jan 26
Full
Feb 3
Last Quarter
Feb 10
New
Feb 17
First Quarter

Hourly Weather History & Observations

Time (EST) Temp. Windchill Dew Point Humidity Pressure Visibility Wind Dir Wind Speed Gust Speed Precip Events Conditions
12:15 AM 19.4 °F - 17.6 °F 93% 29.72 in 10.0 mi Calm Calm - N/A   Overcast
12:34 AM 19.4 °F - 17.6 °F 93% 29.72 in 10.0 mi Calm Calm - N/A Snow Light Snow
12:55 AM 19.4 °F - 17.6 °F 93% 29.71 in 5.0 mi Calm Calm - N/A Snow Light Snow
1:15 AM 19.4 °F - 17.6 °F 93% 29.71 in 7.0 mi Calm Calm - N/A Snow Light Snow
1:34 AM 19.4 °F - 17.6 °F 93% 29.71 in 10.0 mi Calm Calm - N/A   Overcast
1:55 AM 19.4 °F - 17.6 °F 93% 29.71 in 7.0 mi Calm Calm - N/A Snow Light Snow
2:15 AM 19.4 °F - 17.6 °F 93% 29.72 in 10.0 mi Calm Calm - N/A   Overcast
2:34 AM 21.2 °F - 17.6 °F 86% 29.72 in 10.0 mi Calm Calm - N/A   Overcast
2:55 AM 21.2 °F - 17.6 °F 86% 29.73 in 10.0 mi Calm Calm - N/A   Overcast
3:14 AM 19.4 °F 12.8 °F 17.6 °F 93% 29.74 in 10.0 mi WSW 4.6 mph - N/A   Overcast
3:35 AM 19.4 °F - 17.6 °F 93% 29.74 in 10.0 mi Calm Calm - N/A   Overcast
3:55 AM 19.4 °F - 17.6 °F 93% 29.73 in 10.0 mi Calm Calm - N/A   Overcast
4:15 AM 19.4 °F - 17.6 °F 93% 29.72 in 10.0 mi Calm Calm - N/A   Overcast
4:35 AM 19.4 °F - 17.6 °F 93% 29.73 in 10.0 mi Calm Calm - N/A   Overcast
4:54 AM 19.4 °F 12.8 °F 17.6 °F 93% 29.75 in 10.0 mi WSW 4.6 mph - N/A   Overcast
5:15 AM 19.4 °F 12.8 °F 17.6 °F 93% 29.75 in 10.0 mi WSW 4.6 mph - N/A   Overcast
5:35 AM 21.2 °F 14.9 °F 17.6 °F 86% 29.76 in 10.0 mi West 4.6 mph - N/A   Overcast
5:55 AM 21.2 °F 13.6 °F 19.4 °F 93% 29.76 in 10.0 mi West 5.8 mph - N/A   Overcast
6:15 AM 21.2 °F 14.9 °F 19.4 °F 93% 29.76 in 10.0 mi West 4.6 mph - N/A   Overcast
6:34 AM 21.2 °F 14.9 °F 19.4 °F 93% 29.76 in 10.0 mi West 4.6 mph - N/A   Overcast
6:55 AM 21.2 °F 16.4 °F 19.4 °F 93% 29.77 in 10.0 mi SW 3.5 mph - N/A   Overcast
7:15 AM 21.2 °F 14.9 °F 19.4 °F 93% 29.77 in 10.0 mi SSW 4.6 mph - N/A   Overcast
7:34 AM 21.2 °F - 19.4 °F 93% 29.77 in 10.0 mi Calm Calm - N/A   Overcast
7:55 AM 21.2 °F - 19.4 °F 93% 29.77 in 10.0 mi Calm Calm - N/A   Overcast
8:15 AM 21.2 °F - 19.4 °F 93% 29.77 in 10.0 mi Calm Calm - N/A   Overcast
8:34 AM 21.2 °F - 19.4 °F 93% 29.77 in 10.0 mi Calm Calm - N/A   Overcast
8:55 AM 21.2 °F - 19.4 °F 93% 29.76 in 10.0 mi Calm Calm - N/A   Overcast
9:15 AM 21.2 °F - 19.4 °F 93% 29.76 in 7.0 mi Calm Calm - N/A   Overcast
9:34 AM 21.2 °F - 19.4 °F 93% 29.76 in 4.0 mi Calm Calm - N/A Snow Light Snow
9:55 AM 21.2 °F - 19.4 °F 93% 29.77 in 5.0 mi Calm Calm - N/A   Overcast
10:14 AM 21.2 °F - 19.4 °F 93% 29.76 in 10.0 mi Calm Calm - N/A   Overcast
10:35 AM 23.0 °F 17.0 °F 21.2 °F 93% 29.74 in 10.0 mi ESE 4.6 mph - N/A   Overcast
10:55 AM 23.0 °F 15.8 °F 21.2 °F 93% 29.73 in 2.0 mi ESE 5.8 mph - N/A Snow Light Snow
11:14 AM 24.8 °F 15.3 °F 21.2 °F 86% 29.71 in 10.0 mi ESE 9.2 mph - N/A Snow Light Snow
11:35 AM 24.8 °F 16.1 °F 21.2 °F 86% 29.69 in 10.0 mi ESE 8.1 mph - N/A   Overcast
11:55 AM 24.8 °F 15.3 °F 21.2 °F 86% 29.67 in 10.0 mi East 9.2 mph - N/A   Overcast
12:14 PM 24.8 °F 16.1 °F 23.0 °F 93% 29.65 in 4.0 mi ESE 8.1 mph - N/A Snow Light Snow
12:35 PM 24.8 °F 15.3 °F 21.2 °F 86% 29.64 in 0.8 mi SE 9.2 mph - N/A Snow Light Snow
12:55 PM 24.8 °F 16.1 °F 23.0 °F 93% 29.63 in 2.0 mi SSE 8.1 mph - N/A Snow Light Snow
1:14 PM 24.8 °F 19.1 °F 23.0 °F 93% 29.62 in 1.2 mi SE 4.6 mph - N/A Snow Light Snow
1:35 PM 26.6 °F 20.0 °F 23.0 °F 86% 29.60 in 2.0 mi SSE 5.8 mph - N/A Snow Light Snow
1:54 PM 26.6 °F 21.2 °F 23.0 °F 86% 29.60 in 5.0 mi SE 4.6 mph - N/A Snow Light Snow
2:15 PM 26.6 °F 19.1 °F 23.0 °F 86% 29.58 in 3.0 mi SE 6.9 mph - N/A Snow Light Snow
2:35 PM 26.6 °F 21.2 °F 24.8 °F 93% 29.57 in 2.0 mi ESE 4.6 mph - N/A Snow Light Snow
2:54 PM 26.6 °F 20.0 °F 24.8 °F 93% 29.55 in 1.0 mi ESE 5.8 mph - N/A Snow Light Snow
3:15 PM 26.6 °F 21.2 °F 24.8 °F 93% 29.53 in 1.5 mi East 4.6 mph - N/A Snow Light Snow
3:35 PM 26.6 °F 19.1 °F 24.8 °F 93% 29.51 in 1.2 mi ESE 6.9 mph - N/A Snow Light Snow
3:54 PM 26.6 °F 18.2 °F 24.8 °F 93% 29.49 in 1.2 mi ESE 8.1 mph - N/A Snow Light Snow
4:15 PM 26.6 °F 19.1 °F 24.8 °F 93% 29.47 in 2.0 mi ESE 6.9 mph - N/A Snow Light Snow
4:35 PM 26.6 °F 20.0 °F 24.8 °F 93% 29.47 in 0.8 mi SE 5.8 mph - N/A Snow Light Snow
4:54 PM 26.6 °F 21.2 °F 24.8 °F 93% 29.46 in 0.8 mi SE 4.6 mph - N/A Snow Light Snow
5:15 PM 26.6 °F 22.6 °F 24.8 °F 93% 29.44 in 1.2 mi SE 3.5 mph - N/A Snow Light Snow
5:34 PM 26.6 °F 22.6 °F 26.6 °F 100% 29.43 in 2.0 mi SSE 3.5 mph - N/A Snow Light Snow
5:55 PM 26.6 °F 20.0 °F 26.6 °F 100% 29.41 in 1.8 mi SE 5.8 mph - N/A Snow Light Snow
6:15 PM 28.4 °F - 26.6 °F 93% 29.41 in 1.0 mi Calm Calm - N/A Snow Snow
6:34 PM 28.4 °F - 26.6 °F 93% 29.41 in 1.0 mi Calm Calm - N/A Snow Snow
6:55 PM 28.4 °F 23.3 °F 26.6 °F 93% 29.40 in 0.8 mi SW 4.6 mph - N/A Snow Snow
7:14 PM 30.2 °F 23.4 °F 28.4 °F 93% 29.39 in 1.0 mi SW 6.9 mph - N/A Snow Snow
7:35 PM 32.0 °F 23.0 °F 30.2 °F 93% 29.38 in 1.0 mi WSW 11.5 mph - N/A Snow Snow
7:55 PM 32.0 °F 22.1 °F 30.2 °F 93% 29.38 in 2.0 mi West 13.8 mph 18.4 mph N/A Snow Light Snow
8:14 PM 30.2 °F 18.1 °F 28.4 °F 93% 29.38 in 2.0 mi West 18.4 mph 21.9 mph N/A Snow Light Snow
8:35 PM 30.2 °F 19.8 °F 28.4 °F 93% 29.38 in 1.5 mi West 13.8 mph 21.9 mph N/A Snow Light Snow
8:55 PM 28.4 °F 16.2 °F 28.4 °F 100% 29.38 in 2.0 mi West 17.3 mph 21.9 mph N/A Snow Light Snow
9:14 PM 28.4 °F 18.0 °F 26.6 °F 93% 29.38 in 7.0 mi West 12.7 mph - N/A Snow Light Snow
9:35 PM 28.4 °F 14.1 °F 26.6 °F 93% 29.38 in 7.0 mi West 24.2 mph 32.2 mph N/A   Overcast
9:55 PM 26.6 °F 12.4 °F 24.8 °F 93% 29.40 in 5.0 mi West 21.9 mph 31.1 mph N/A   Overcast
10:14 PM 26.6 °F 13.4 °F 23.0 °F 86% 29.40 in 7.0 mi West 18.4 mph 29.9 mph N/A   Overcast
10:35 PM 26.6 °F 13.4 °F 19.4 °F 74% 29.42 in 4.0 mi West 18.4 mph 34.5 mph N/A Snow Light Snow
10:55 PM 23.0 °F 8.0 °F 17.6 °F 80% 29.41 in 7.0 mi West 20.7 mph 28.8 mph N/A   Mostly Cloudy
11:14 PM 21.2 °F 4.5 °F 17.6 °F 86% 29.41 in 5.0 mi West 24.2 mph 35.7 mph N/A   Mostly Cloudy
11:35 PM 21.2 °F 6.0 °F 19.4 °F 93% 29.40 in 7.0 mi West 19.6 mph 27.6 mph N/A   Overcast
11:54 PM 21.2 °F 4.9 °F 17.6 °F 86% 29.38 in 7.0 mi West 23.0 mph 26.5 mph N/A   Mostly Cloudy